Weather reports worldwide

Advertisment
Shobdon, United Kingdom (3520): temperature & dewpoint: 21.06.2017 06:00:00 - 27.06.2017 06:00:00 (BST)Shobdon, United Kingdom (3520): temperature 5cm: 21.06.2017 06:00:00 - 27.06.2017 06:00:00 (BST)Shobdon, United Kingdom (3520): temperature -20cm & temperature -100cm: 21.06.2017 06:00:00 - 27.06.2017 06:00:00 (BST)Shobdon, United Kingdom (3520): wind speed & gusts: 21.06.2017 06:00:00 - 27.06.2017 06:00:00 (BST)Shobdon, United Kingdom (3520): wind direction: 21.06.2017 06:00:00 - 27.06.2017 06:00:00 (BST)Shobdon, United Kingdom (3520): reduced air pressure: 21.06.2017 06:00:00 - 27.06.2017 06:00:00 (BST)Shobdon, United Kingdom (3520): visibility: 21.06.2017 06:00:00 - 27.06.2017 06:00:00 (BST)Shobdon, United Kingdom (3520): sunshine duration: 21.06.2017 06:00:00 - 27.06.2017 06:00:00 (BST)Shobdon, United Kingdom (3520): precipitation: 21.06.2017 06:00:00 - 27.06.2017 06:00:00 (BST)
Date & Time tt [°C] td [°C] tt 5cm [°C] tt -20cm [°C] tt -100cm [°C] ff [km/h] ff [kn] fx [km/h] fx [kn] dd ppp [hPa] vv [km] sd [min] rr [mm]
27.06.2017 06:00:00 14,8 11,5 - - - 5 3 - - E 1008,7 16 0 0,0
27.06.2017 05:00:00 14,4 10,9 - - - 5 3 - - ENE 1008,9 17 0 0,0
27.06.2017 04:00:00 14,6 10,8 - - - 4 2 - - NE 1009,2 17 0 0,0
27.06.2017 03:00:00 15,1 10,5 - - - 5 3 - - E 1009,8 18 0 0,0
27.06.2017 02:00:00 15,8 10,1 - - - 8 4 - - ENE 1010,2 19 0 0,0
27.06.2017 01:00:00 15,2 11,6 - - - 2 1 - - NNE 1010,9 18 - 0,0
27.06.2017 00:00:00 15,7 11,9 - - - 5 3 - - ENE 1011,3 17 0 0,0
26.06.2017 23:00:00 16,2 11,4 - - - 5 3 - - NE 1011,7 18 0 0,0
26.06.2017 22:00:00 16,3 12,0 - - - 5 3 - - NE 1011,8 18 0 0,0
26.06.2017 21:00:00 16,8 12,2 - - - 4 2 - - ENE 1011,9 18 0 0,0
26.06.2017 20:00:00 17,8 12,2 - - - 4 2 - - ENE 1012,1 19 0 0,0
26.06.2017 19:00:00 18,9 10,5 - - - 5 3 - - SE 1012,4 20 0 0,0
26.06.2017 18:00:00 19,1 9,8 - - - 5 3 - - SE 1012,6 20 0 0,0
26.06.2017 17:00:00 18,8 10,2 - - - 9 5 - - SE 1013,3 20 0 0,0
26.06.2017 16:00:00 18,7 9,3 - - - 4 2 - - SSE 1013,6 22 0 0,0
26.06.2017 15:00:00 18,7 9,2 - - - 5 3 - - SE 1013,8 21 0 0,0
26.06.2017 14:00:00 19,1 9,2 - - - 5 3 - - S 1014,0 21 42 0,0
26.06.2017 13:00:00 17,9 8,8 - - - 8 4 - - SE 1014,5 22 48 0,0
26.06.2017 12:00:00 18,1 9,8 - - - 5 3 - - S 1014,6 21 54 0,0
26.06.2017 11:00:00 17,3 10,0 - - - 4 2 - - ENE 1014,7 18 60 0,0
26.06.2017 10:00:00 16,3 8,7 - 18,2 16,5 4 2 - - SSE 1015,1 20 54 0,0
26.06.2017 09:00:00 14,8 8,6 - - - 5 3 - - SE 1015,3 21 36 0,0
26.06.2017 08:00:00 13,9 9,9 - - - 2 1 - - SSW 1015,4 19 54 0,0
26.06.2017 07:00:00 11,7 10,7 - - - 2 1 - - NW 1015,3 17 0 0,0
26.06.2017 06:00:00 10,1 9,6 - - - 2 1 - - N 1015,1 14 0 0,0
26.06.2017 05:00:00 10,4 10,1 - - - 4 2 - - W 1015,0 15 0 0,0
26.06.2017 04:00:00 9,7 9,4 - - - 2 1 - - NNE 1015,3 18 0 0,0
26.06.2017 03:00:00 8,6 7,5 - - - 2 1 - - N 1015,3 17 0 0,0
26.06.2017 02:00:00 11,3 9,0 - - - 5 3 - - WNW 1015,2 21 0 0,0
26.06.2017 01:00:00 11,1 9,6 - - - 5 3 - - W 1015,1 21 - 0,0
26.06.2017 00:00:00 11,8 9,4 - - - 2 1 - - W 1015,1 22 0 0,0
25.06.2017 23:00:00 12,6 9,4 - - - 8 4 - - WNW 1014,9 20 0 0,0
25.06.2017 22:00:00 12,9 9,2 - - - 4 2 - - W 1014,6 20 0 0,0
25.06.2017 21:00:00 14,6 9,8 - - - 8 4 - - NW 1013,9 22 0 0,0
25.06.2017 20:00:00 15,4 10,5 - - - 13 7 - - NW 1013,5 23 6 0,0
25.06.2017 19:00:00 16,2 11,1 - - - 13 7 - - NW 1013,3 24 0 0,0
25.06.2017 18:00:00 16,5 11,3 - - - 15 8 - - NW 1012,8 24 0 0,0
25.06.2017 17:00:00 16,9 12,6 - - - 15 8 - - WNW 1012,3 25 0 0,0
25.06.2017 16:00:00 18,0 12,0 - - - 16 9 - - W 1011,9 26 6 0,0
25.06.2017 15:00:00 18,4 12,2 - - - 16 9 - - W 1011,5 24 30 0,0
25.06.2017 14:00:00 19,3 12,5 - - - 21 11 - - W 1011,1 28 36 0,0
25.06.2017 13:00:00 19,2 13,3 - - - 21 11 - - W 1010,9 26 30 0,0
25.06.2017 12:00:00 18,9 14,2 - - - 21 11 - - WSW 1010,9 30 24 0,0
25.06.2017 11:00:00 17,8 14,6 - - - 11 6 - - NW 1010,8 29 12 0,8
25.06.2017 10:00:00 15,8 13,7 - 18,7 16,5 13 7 - - SSW 1011,2 15 0 0,0
25.06.2017 09:00:00 15,3 12,5 - - - 15 8 - - SW 1011,3 19 0 0,0
25.06.2017 08:00:00 15,1 11,9 - - - 11 6 - - WSW 1011,6 17 6 0,0
25.06.2017 07:00:00 14,5 10,9 - - - 13 7 - - WSW 1011,6 18 6 0,0
25.06.2017 06:00:00 13,4 10,4 - - - 16 9 - - WSW 1011,6 17 0 0,0
25.06.2017 05:00:00 13,8 10,2 - - - 15 8 - - WSW 1011,5 15 0 0,0
25.06.2017 04:00:00 14,1 10,8 - - - 15 8 - - WSW 1011,4 16 0 0,0
25.06.2017 03:00:00 14,4 10,9 - - - 18 10 - - SW 1011,4 19 0 0,0
25.06.2017 02:00:00 14,6 11,5 - - - 13 7 - - SW 1011,5 20 0 0,0
25.06.2017 01:00:00 14,6 12,0 - - - 21 11 - - WSW 1011,8 19 - 0,0
25.06.2017 00:00:00 14,4 12,2 - - - 16 9 - - WSW 1012,0 18 0 0,0
24.06.2017 23:00:00 14,9 12,6 - - - 13 7 - - SW 1012,3 13 0 0,0
24.06.2017 22:00:00 14,8 12,2 - - - 15 8 - - WSW 1012,4 14 0 0,0
24.06.2017 21:00:00 16,2 12,9 - - - 21 11 - - WSW 1011,8 17 24 0,0
24.06.2017 20:00:00 17,6 13,4 - - - 16 9 - - WSW 1011,6 17 30 0,0
24.06.2017 19:00:00 18,8 13,3 - - - 16 9 - - W 1011,7 17 12 0,0
24.06.2017 18:00:00 18,5 13,9 - - - 18 10 - - WSW 1011,8 19 18 0,0
24.06.2017 17:00:00 19,2 13,8 - - - 21 11 - - W 1012,2 18 12 0,0
24.06.2017 16:00:00 19,4 13,6 - - - 21 11 - - W 1012,5 17 30 0,0
24.06.2017 15:00:00 19,8 13,9 - - - 21 11 - - W 1012,5 17 24 0,0
24.06.2017 14:00:00 19,5 14,0 - - - 16 9 - - W 1012,8 17 30 0,0
24.06.2017 13:00:00 19,8 14,9 - - - 16 9 - - W 1012,8 18 30 0,0
24.06.2017 12:00:00 19,1 13,3 - - - 22 12 - - W 1013,0 18 42 0,0
24.06.2017 11:00:00 18,8 13,5 - - - 18 10 - - W 1013,1 18 54 0,0
24.06.2017 10:00:00 18,3 13,9 - 18,7 16,7 26 14 - - W 1013,0 18 42 0,0
24.06.2017 09:00:00 17,0 13,1 - - - 16 9 - - W 1013,3 18 42 0,0
24.06.2017 08:00:00 16,2 12,9 - - - 22 12 - - W 1013,5 19 42 0,0
24.06.2017 07:00:00 16,7 13,4 - - - 16 9 - - W 1013,2 20 54 0,0
24.06.2017 06:00:00 14,8 13,1 - - - 9 5 - - WSW 1013,3 17 0 0,0
24.06.2017 05:00:00 15,3 13,8 - - - 16 9 - - WSW 1013,3 15 0 0,0
24.06.2017 04:00:00 15,6 13,9 - - - 18 10 - - WSW 1013,4 24 0 0,0
24.06.2017 03:00:00 16,0 14,0 - - - 21 11 - - W 1013,4 7 0 0,0
24.06.2017 02:00:00 16,2 14,0 - - - 16 9 - - W 1013,7 26 0 0,0
24.06.2017 01:00:00 16,4 14,0 - - - 16 9 - - W 1013,7 27 - 0,0
24.06.2017 00:00:00 16,4 14,0 - - - 15 8 - - WSW 1014,1 27 0 0,0
23.06.2017 23:00:00 16,4 13,8 - - - 21 11 - - WSW 1014,1 29 0 0,0
23.06.2017 22:00:00 16,4 13,8 - - - 16 9 - - WSW 1014,3 27 0 0,0
23.06.2017 21:00:00 16,6 13,8 - - - 21 11 - - WSW 1014,3 27 0 0,0
23.06.2017 20:00:00 16,9 14,4 - - - 21 11 - - WSW 1014,4 25 6 0,0
23.06.2017 19:00:00 18,0 14,9 - - - 24 13 - - WSW 1014,5 20 36 0,0
23.06.2017 18:00:00 17,3 14,2 - - - 24 13 - - WSW 1014,9 19 0 0,0
23.06.2017 17:00:00 18,0 14,0 - - - 24 13 - - WSW 1015,1 27 0 0,0
23.06.2017 16:00:00 17,1 13,8 - - - 21 11 - - WSW 1015,2 24 0 0,0
23.06.2017 15:00:00 17,1 13,6 - - - 18 10 - - WSW 1015,4 23 0 0,0
23.06.2017 14:00:00 17,1 13,5 - - - 26 14 46 25 WSW 1015,2 19 0 0,0
23.06.2017 13:00:00 17,0 13,3 - - - 21 11 - - WSW 1015,0 17 0 0,0
23.06.2017 12:00:00 16,6 12,9 - - - 29 16 48 26 WSW 1015,2 15 0 0,0
23.06.2017 11:00:00 16,8 12,7 - - - 29 16 46 25 W 1015,0 11 0 0,0
23.06.2017 10:00:00 16,4 12,7 - 19,7 16,5 34 18 46 25 WSW 1014,8 12 0 0,0
23.06.2017 09:00:00 15,7 11,9 - - - 29 16 - - W 1015,0 14 0 0,0
23.06.2017 08:00:00 15,4 11,4 - - - 26 14 - - W 1014,5 14 0 0,0
23.06.2017 07:00:00 15,0 11,1 - - - 21 11 46 25 WSW 1014,5 15 0 0,0
23.06.2017 06:00:00 14,3 10,5 - - - 22 12 - - W 1014,6 15 0 0,0
23.06.2017 05:00:00 13,7 10,3 - - - 13 7 - - WSW 1014,4 14 0 0,0
23.06.2017 04:00:00 13,6 10,3 - - - 16 9 - - W 1014,5 13 0 0,0
23.06.2017 03:00:00 13,3 10,4 - - - 16 9 - - WSW 1014,9 11 0 0,0
23.06.2017 02:00:00 12,3 9,5 - - - 11 6 - - W 1014,8 12 0 0,0
23.06.2017 01:00:00 12,7 10,1 - - - 8 4 - - WSW 1015,0 13 - 0,0
23.06.2017 00:00:00 12,9 10,5 - - - 9 5 - - W 1015,1 16 0 0,0
22.06.2017 23:00:00 15,2 12,7 - - - 13 7 - - WSW 1014,8 14 0 0,0
22.06.2017 22:00:00 13,3 11,7 - - - 2 1 - - NW 1014,1 12 12 0,0
22.06.2017 21:00:00 15,4 11,9 - - - 4 2 - - NW 1014,0 13 6 0,0
22.06.2017 20:00:00 18,0 11,9 - - - 13 7 - - WNW 1014,1 14 30 0,0
22.06.2017 19:00:00 17,6 12,4 - - - 13 7 - - W 1014,0 14 6 0,0
22.06.2017 18:00:00 17,9 12,0 - - - 13 7 - - WNW 1013,8 14 30 0,0
22.06.2017 17:00:00 18,9 12,8 - - - 16 9 - - WNW 1013,5 14 12 0,0
22.06.2017 16:00:00 18,1 13,3 - - - 16 9 - - WNW 1013,2 13 0 0,0
22.06.2017 15:00:00 19,7 13,6 - - - 16 9 - - WNW 1012,4 15 0 0,0
22.06.2017 14:00:00 20,5 15,0 - - - 16 9 - - WNW 1012,0 15 30 0,0
22.06.2017 13:00:00 19,1 16,1 - - - 13 7 - - NW 1011,8 13 6 0,0
22.06.2017 12:00:00 17,5 15,1 - - - 13 7 - - W 1011,8 11 0 0,0
22.06.2017 11:00:00 17,8 15,1 - - - 9 5 - - W 1011,2 11 0 0,0
22.06.2017 10:00:00 17,6 14,6 - 20,4 16,2 15 8 - - W 1010,9 11 0 0,0
22.06.2017 09:00:00 17,1 13,4 - - - 15 8 - - W 1010,6 13 0 0,0
22.06.2017 08:00:00 16,3 12,4 - - - 11 6 - - W 1010,7 16 0 0,0
22.06.2017 07:00:00 15,8 12,5 - - - 15 8 - - W 1010,9 16 0 0,0
22.06.2017 06:00:00 15,6 13,4 - - - 13 7 - - W 1010,9 13 0 0,0
22.06.2017 05:00:00 15,8 13,3 - - - 16 9 - - W 1010,5 13 0 0,0
22.06.2017 04:00:00 16,4 14,2 - - - 15 8 - - W 1010,6 10 0 0,0
22.06.2017 03:00:00 17,0 14,9 - - - 13 7 - - W 1010,4 8 0 0,0
22.06.2017 02:00:00 17,7 15,9 - - - 11 6 - - W 1010,6 6 0 0,0
22.06.2017 01:00:00 19,7 16,7 - - - 9 5 - - SSW 1010,5 8 - 0,0
22.06.2017 00:00:00 18,7 16,3 - - - 4 2 - - WSW 1010,6 7 0 0,0
21.06.2017 23:00:00 20,7 17,7 - - - 9 5 - - W 1010,8 9 0 0,0
21.06.2017 22:00:00 23,6 19,5 - - - 9 5 - - W 1010,5 9 0 0,0
21.06.2017 21:00:00 26,0 20,7 - - - 13 7 - - WSW 1010,1 11 6 0,0
21.06.2017 20:00:00 27,2 20,8 - - - 8 4 - - SSW 1010,2 12 0 0,0
21.06.2017 19:00:00 28,0 21,1 - - - 5 3 - - S 1010,3 12 6 0,0
21.06.2017 18:00:00 27,6 20,8 - - - 4 2 - - SSE 1010,7 12 0 0,0
21.06.2017 17:00:00 27,5 19,5 - - - 9 5 - - SSE 1011,4 12 6 0,0
21.06.2017 16:00:00 28,1 19,3 - - - 9 5 - - SSE 1012,0 12 60 0,0
21.06.2017 15:00:00 27,2 19,3 - - - 11 6 - - SE 1012,4 12 60 0,0
21.06.2017 14:00:00 25,8 19,0 - - - 9 5 - - ESE 1013,3 11 60 0,0
21.06.2017 13:00:00 24,1 18,3 - - - 9 5 - - E 1014,1 10 60 0,0
21.06.2017 12:00:00 23,3 18,2 - - - 5 3 - - E 1014,8 9 60 0,0
21.06.2017 11:00:00 20,2 16,6 - - - 4 2 - - NNW 1015,3 7 42 0,0
21.06.2017 10:00:00 18,3 16,0 20,5 20,0 15,9 5 3 - - NE 1016,0 6 0 0,0
21.06.2017 09:00:00 17,4 15,8 - - - 8 4 - - ESE 1016,3 5 0 0,0
21.06.2017 08:00:00 16,9 15,9 - - - 8 4 - - E 1016,3 5 0 0,0
21.06.2017 07:00:00 16,5 15,9 - - - 9 5 - - E 1016,8 4,6 0 0,0
21.06.2017 06:00:00 15,5 15,1 - - - 2 1 - - ENE 1017,4 4,5 0 0,0

tt = temperature
td = dewpoint
tt 5cm = temperature 5cm
tt -20cm = temperature -20cm
tt -100cm = temperature -100cm
ff = wind speed
fx = gusts
dd = wind direction
ppp = reduced air pressure
vv = visibility
sd = sunshine duration
rr = precipitation

Next stations